This is the latest recevied weather packets stored in our database for station/object DB0MW-13. If no packets are shown the sender has not sent any weather packets the latest 10 day(s).
| Time | Temp. | Humidity | Pressure | Rain* | Wind** | Luminosity | Snow |
|---|---|---|---|---|---|---|---|
| 1777799400 | 19.44° C | 41% | 1015.8 hPa | 0 mm | - | - | - |
| 1777799100 | 18.89° C | 44% | 1016 hPa | 0 mm | - | - | - |
| 1777798800 | 18.89° C | 44% | 1015.7 hPa | 0 mm | - | - | - |
| 1777798501 | 18.33° C | 44% | 1015.8 hPa | 0 mm | - | - | - |
| 1777798201 | 18.33° C | 46% | 1015.9 hPa | 0 mm | - | - | - |
| 1777797601 | 17.78° C | 50% | 1015.6 hPa | 0 mm | - | - | - |
| 1777797301 | 17.22° C | 50% | 1015.7 hPa | 0 mm | - | - | - |
| 1777797001 | 17.22° C | 54% | 1015.8 hPa | 0 mm | - | - | - |
| 1777796701 | 17.22° C | 56% | 1016.1 hPa | 0 mm | - | - | - |
| 1777796401 | 16.67° C | 57% | 1016.3 hPa | 0 mm | - | - | - |
| 1777796100 | 16.67° C | 59% | 1016.1 hPa | 0 mm | - | - | - |
| 1777795801 | 16.67° C | 61% | 1016.3 hPa | 0 mm | - | - | - |
| 1777795501 | 16.67° C | 62% | 1016.2 hPa | 0 mm | - | - | - |
| 1777795201 | 16.67° C | 64% | 1016.4 hPa | 0 mm | - | - | - |
| 1777794901 | 16.11° C | 65% | 1016.1 hPa | 0 mm | - | - | - |
| 1777794000 | 16.11° C | 68% | 1016.2 hPa | 0 mm | - | - | - |
| 1777793700 | 15.56° C | 68% | 1016.3 hPa | 0 mm | - | - | - |
| 1777793400 | 15.56° C | 69% | 1016 hPa | 0 mm | - | - | - |
| 1777793100 | 15.56° C | 68% | 1016.1 hPa | 0 mm | - | - | - |
| 1777792800 | 15.56° C | 68% | 1016.1 hPa | 0 mm | - | - | - |
| 1777792500 | 15.56° C | 68% | 1016.4 hPa | 0 mm | - | - | - |
| 1777792200 | 15° C | 67% | 1016.5 hPa | 0 mm | - | - | - |
| 1777791900 | 15° C | 65% | 1016.6 hPa | 0 mm | - | - | - |
| 1777791600 | 15° C | 64% | 1016.7 hPa | 0 mm | - | - | - |
| 1777791300 | 15° C | 63% | 1016.4 hPa | 0 mm | - | - | - |
* Rain latest hour (hover to see other rain measurements)
** Current wind speed in m/s (hover to see current wind gust speed)